Regional Weather Roundup
Issued by NWS

Home | Current Version | Previous Version | Text Only | Print | Product List | Glossary Off
Versions: 1 2 3 4 5 6 7 8 9 10 11 12 13 14 15 16 17 18 19 20 21 22 23 24 25 26 27 28 29 30 31 32 33 34 35 36 37 38 39 40 41 42 43 44 45 46 47 48 49 50

000
ASUS44 KMEG 241210
RWRTN
TENNESSEE HOURLY STATE WEATHER ROUNDUP
NATIONAL WEATHER SERVICE MEMPHIS TN
700 AM CDT SAT SEP 24 2016

TNZ002-004-019-021-049-052-054-088>092-241300-
WEST TENNESSEE

CITY           SKY/WX    TMP DP  RH WIND       PRES   REMARKS
MEMPHIS INTL   PTCLDY    73  67  81 CALM      30.08R
NWS MEMPHIS      N/A     68 N/A N/A MISG        N/A
JACKSON        CLEAR    N/A N/A N/A CALM      30.09R HAZE
DYERSBURG      CLEAR    N/A N/A N/A MISG      30.09R
UNION CITY       N/A     66  66 100 CALM      30.09R VSB 1/2
PARIS          CLEAR     64  64 100 CALM      30.11R
$$

TNZ008-025-027-028-033-062-065-066-241300-
NORTH MIDDLE TENNESSEE

CITY           SKY/WX    TMP DP  RH WIND       PRES   REMARKS
NASHVILLE      CLEAR     66  64  93 CALM      30.12R FOG
PORTLAND       CLEAR     63  63 100 CALM      30.13R
CLARKSVILLE    FOG       64  63  96 CALM      30.12R VSB 1/2
SMYRNA         CLEAR     63  63 100 CALM      30.13R
COOKEVILLE     CLEAR     61  59  94 CALM      30.12R
GALLATIN       CLEAR     63  63 100 CALM      30.15R
CROSSVILLE     CLEAR     60  59  96 CALM      30.17R
$$

TNZ061-075-076-078-094-096-097-241300-
SOUTH MIDDLE TENNESSEE

CITY           SKY/WX    TMP DP  RH WIND       PRES   REMARKS
FAYETTEVILLE   MOCLDY    66  64  94 NE5       30.12R
TULLAHOMA      CLEAR     61  57  88 CALM      30.14R
WINCHESTER     CLEAR     59  57  94 CALM      30.13R
MCMINNVILLE    CLEAR     61  61 100 CALM      30.14R
COLUMBIA       CLEAR    N/A N/A N/A CALM      30.10S
SHELBYVILLE    CLEAR     61  61 100 CALM      30.13R
$$

TNZ017-018-042-046-047-241300-
NORTHEAST TENNESSEE

CITY           SKY/WX    TMP DP  RH WIND       PRES   REMARKS
TRI CITIES     CLEAR     60  59  96 CALM      30.16R FOG
ELIZABETHTON   CLEAR     63  61  94 CALM      30.16R
$$

TNZ012-013-036-069-073-074-241300-
CENTRAL EAST TENNESSEE

CITY           SKY/WX    TMP DP  RH WIND       PRES   REMARKS
KNOXVILLE      PTCLDY    65  61  87 CALM      30.12R
OAK RIDGE      FOG       65  63  93 CALM      30.14R VSB 1/4
DOWNTOWN KNOXV CLEAR     64  64 100 CALM      30.13R
GATLINBURG     CLEAR     59  57  94 CALM      30.13R
MORRISTOWN     CLEAR     64  63  94 CALM      30.14R
JACKSBORO      CLEAR     61  61 100 CALM      30.17R
$$

TNZ083-085-099-241300-
SOUTHEAST TENNESSEE

CITY           SKY/WX    TMP DP  RH WIND       PRES   REMARKS
CHATTANOOGA    PTCLDY    67  63  87 CALM      30.11R
$$

SKY/WX REPORTED AS FAIR MEANS FEW OR NO CLOUDS BELOW
12 THOUSAND FEET.




USA.gov is the U.S. government's official web portal to all federal, state and local government web resources and services.